GAP2924 RPLL-RPVR

Flight info

Callsign GAP2924
Flight time 0h 43m
Altitude 25000
Route IPATA2R IPATA DCT SAGAM TR16 SIBUN
Aircraft A20N/M-SDE2E3FGHIRWXY/LB1

Departure

Time 2026-04-26 06:08
Airport Ninoy Aquino International Airport (RPLL)

Arrival

Time 2026-04-26 06:51
Airport Roxas Airport (RPVR)
Time Latitude Longitude Altitude Speed Heading
2026-04-26 05:56 14.50882 121.01370 53 ft 0 kts 329°
2026-04-26 05:58 14.50879 121.01372 53 ft 2 kts 329°
2026-04-26 05:58 14.50866 121.01380 53 ft 2 kts 328°
2026-04-26 05:58 14.50853 121.01389 53 ft 2 kts 329°
2026-04-26 05:59 14.50840 121.01396 53 ft 2 kts 329°
2026-04-26 05:59 14.50829 121.01403 53 ft 0 kts 329°
2026-04-26 05:59 14.50820 121.01411 53 ft 2 kts 300°
2026-04-26 05:59 14.50815 121.01426 53 ft 2 kts 268°
2026-04-26 06:00 14.50817 121.01437 53 ft 0 kts 244°
2026-04-26 06:00 14.50821 121.01444 53 ft 0 kts 240°
2026-04-26 06:02 14.50812 121.01427 52 ft 4 kts 240°
2026-04-26 06:02 14.50789 121.01385 51 ft 8 kts 241°
2026-04-26 06:03 14.50755 121.01324 50 ft 10 kts 238°
2026-04-26 06:03 14.50692 121.01321 49 ft 7 kts 167°
2026-04-26 06:03 14.50647 121.01280 47 ft 11 kts 242°
2026-04-26 06:03 14.50596 121.01190 44 ft 16 kts 240°
2026-04-26 06:04 14.50535 121.01077 41 ft 20 kts 239°
2026-04-26 06:04 14.50458 121.00942 39 ft 22 kts 240°
2026-04-26 06:04 14.50377 121.00796 40 ft 23 kts 240°
2026-04-26 06:04 14.50294 121.00647 39 ft 24 kts 240°
2026-04-26 06:05 14.50208 121.00491 37 ft 24 kts 240°
2026-04-26 06:05 14.50122 121.00337 35 ft 25 kts 239°
2026-04-26 06:05 14.50034 121.00178 34 ft 25 kts 241°
2026-04-26 06:05 14.49956 121.00037 31 ft 15 kts 240°
2026-04-26 06:06 14.49911 120.99968 30 ft 10 kts 213°
2026-04-26 06:06 14.49850 120.99982 30 ft 9 kts 151°
2026-04-26 06:06 14.49796 121.00021 30 ft 8 kts 107°
2026-04-26 06:06 14.49807 121.00050 31 ft 0 kts 60°
2026-04-26 06:07 14.49837 121.00105 32 ft 33 kts 60°
2026-04-26 06:07 14.50066 121.00519 36 ft 97 kts 60°
2026-04-26 06:07 14.50505 121.01300 43 ft 150 kts 63°
2026-04-26 06:08 14.51063 121.02313 321 ft 167 kts 62°
2026-04-26 06:08 14.51655 121.03394 801 ft 173 kts 62°
2026-04-26 06:08 14.52215 121.04455 1449 ft 171 kts 63°
2026-04-26 06:08 14.52830 121.05487 2004 ft 172 kts 61°
2026-04-26 06:09 14.53463 121.06596 2269 ft 186 kts 62°
2026-04-26 06:09 14.54109 121.07755 2526 ft 200 kts 62°
2026-04-26 06:09 14.54717 121.08852 2756 ft 213 kts 62°
2026-04-26 06:09 14.55505 121.10272 2982 ft 233 kts 62°
2026-04-26 06:10 14.56457 121.11993 3360 ft 253 kts 63°
2026-04-26 06:10 14.57136 121.13696 3819 ft 264 kts 75°
2026-04-26 06:10 14.57490 121.15575 4504 ft 267 kts 83°
2026-04-26 06:10 14.57711 121.17473 5237 ft 270 kts 84°
2026-04-26 06:11 14.57920 121.19405 5958 ft 274 kts 84°
2026-04-26 06:11 14.58134 121.21362 6707 ft 278 kts 84°
2026-04-26 06:11 14.58354 121.23352 7463 ft 282 kts 84°
2026-04-26 06:11 14.58295 121.25379 8174 ft 287 kts 105°
2026-04-26 06:12 14.57361 121.27177 8921 ft 291 kts 131°
2026-04-26 06:12 14.55800 121.28516 9636 ft 296 kts 143°
2026-04-26 06:12 14.54111 121.29770 10256 ft 302 kts 144°
2026-04-26 06:12 14.52352 121.31082 10681 ft 317 kts 144°
2026-04-26 06:13 14.50529 121.32455 11000 ft 334 kts 143°
2026-04-26 06:13 14.48595 121.33923 11297 ft 351 kts 143°
2026-04-26 06:13 14.46594 121.35449 11590 ft 366 kts 143°
2026-04-26 06:13 14.44504 121.37050 12098 ft 373 kts 143°
2026-04-26 06:14 14.42419 121.38648 12706 ft 377 kts 143°
2026-04-26 06:14 14.40531 121.40095 13238 ft 379 kts 144°
2026-04-26 06:14 14.39268 121.41063 13585 ft 381 kts 143°
2026-04-26 06:14 14.36017 121.43555 14433 ft 386 kts 144°
2026-04-26 06:15 14.33965 121.45129 14936 ft 389 kts 144°
2026-04-26 06:15 14.31825 121.46768 15458 ft 392 kts 144°
2026-04-26 06:15 14.30201 121.48011 15849 ft 395 kts 144°
2026-04-26 06:15 14.28157 121.49575 16330 ft 397 kts 144°
2026-04-26 06:16 14.25761 121.51405 16848 ft 401 kts 144°
2026-04-26 06:16 14.24207 121.52586 17178 ft 403 kts 144°
2026-04-26 06:16 14.21330 121.54775 17794 ft 407 kts 144°
2026-04-26 06:16 14.19048 121.56515 18262 ft 410 kts 144°
2026-04-26 06:17 14.16721 121.58289 18743 ft 412 kts 144°
2026-04-26 06:17 14.14388 121.60068 19209 ft 415 kts 144°
2026-04-26 06:17 14.12053 121.61846 19663 ft 417 kts 144°
2026-04-26 06:17 14.09685 121.63649 20108 ft 420 kts 144°
2026-04-26 06:18 14.07317 121.65453 20541 ft 422 kts 145°
2026-04-26 06:18 14.04937 121.67278 20964 ft 425 kts 145°
2026-04-26 06:18 14.02527 121.69128 21377 ft 427 kts 145°
2026-04-26 06:18 14.00134 121.70962 21778 ft 430 kts 145°
2026-04-26 06:19 13.97696 121.72827 22183 ft 432 kts 145°
2026-04-26 06:19 13.95288 121.74663 22578 ft 434 kts 145°
2026-04-26 06:19 13.92843 121.76525 22963 ft 437 kts 145°
2026-04-26 06:19 13.90361 121.78416 23332 ft 439 kts 146°
2026-04-26 06:20 13.87816 121.80224 23681 ft 441 kts 149°
2026-04-26 06:20 13.85195 121.81852 24023 ft 443 kts 153°
2026-04-26 06:20 13.82419 121.83346 24362 ft 445 kts 156°
2026-04-26 06:20 13.79631 121.84730 24693 ft 448 kts 156°
2026-04-26 06:21 13.76779 121.86133 24855 ft 450 kts 156°
2026-04-26 06:21 13.73947 121.87525 24856 ft 449 kts 156°
2026-04-26 06:21 13.71109 121.88923 24860 ft 449 kts 156°
2026-04-26 06:21 13.68267 121.90324 24864 ft 449 kts 156°
2026-04-26 06:22 13.65416 121.91730 24865 ft 449 kts 156°
2026-04-26 06:22 13.62599 121.93121 24869 ft 449 kts 156°
2026-04-26 06:22 13.59747 121.94528 24872 ft 449 kts 156°
2026-04-26 06:22 13.56916 121.95925 24877 ft 449 kts 156°
2026-04-26 06:23 13.54076 121.97328 24877 ft 449 kts 156°
2026-04-26 06:23 13.51251 121.98720 24878 ft 449 kts 156°
2026-04-26 06:23 13.48447 122.00102 24880 ft 449 kts 156°
2026-04-26 06:23 13.45593 122.01510 24884 ft 449 kts 156°
2026-04-26 06:24 13.42772 122.02902 24893 ft 449 kts 156°
2026-04-26 06:24 13.39929 122.04302 24900 ft 449 kts 156°
2026-04-26 06:24 13.37123 122.05685 24906 ft 449 kts 156°
2026-04-26 06:24 13.34291 122.07079 24910 ft 449 kts 156°
2026-04-26 06:25 13.31449 122.08478 24913 ft 449 kts 156°
2026-04-26 06:25 13.28613 122.09874 24915 ft 449 kts 156°
2026-04-26 06:25 13.25787 122.11265 24917 ft 448 kts 156°
2026-04-26 06:25 13.22952 122.12660 24917 ft 448 kts 156°
2026-04-26 06:26 13.20116 122.14056 24910 ft 448 kts 156°
2026-04-26 06:26 13.17288 122.15447 24902 ft 448 kts 155°
2026-04-26 06:26 13.14469 122.16833 24893 ft 448 kts 156°
2026-04-26 06:26 13.11668 122.18211 24888 ft 448 kts 156°
2026-04-26 06:27 13.08835 122.19604 24878 ft 448 kts 156°
2026-04-26 06:27 13.06007 122.20993 24873 ft 448 kts 155°
2026-04-26 06:27 13.03198 122.22374 24872 ft 448 kts 156°
2026-04-26 06:27 13.00372 122.23761 24868 ft 449 kts 155°
2026-04-26 06:28 12.97553 122.25145 24866 ft 449 kts 155°
2026-04-26 06:28 12.94726 122.26533 24865 ft 449 kts 155°
2026-04-26 06:28 12.91889 122.27925 24864 ft 449 kts 155°
2026-04-26 06:28 12.89041 122.29322 24666 ft 448 kts 155°
2026-04-26 06:29 12.86229 122.30695 24349 ft 445 kts 155°
2026-04-26 06:29 12.83456 122.32048 23936 ft 441 kts 155°
2026-04-26 06:29 12.80752 122.33369 23475 ft 438 kts 155°
2026-04-26 06:29 12.78100 122.34665 22996 ft 434 kts 155°
2026-04-26 06:30 12.75358 122.36008 22493 ft 430 kts 155°
2026-04-26 06:30 12.72665 122.37328 21997 ft 426 kts 155°
2026-04-26 06:30 12.70001 122.38633 21495 ft 423 kts 155°
2026-04-26 06:30 12.67349 122.39932 20984 ft 420 kts 155°
2026-04-26 06:31 12.64694 122.41232 20469 ft 416 kts 155°
2026-04-26 06:31 12.62080 122.42512 19955 ft 414 kts 154°
2026-04-26 06:31 12.59487 122.43782 19446 ft 411 kts 154°
2026-04-26 06:31 12.56877 122.45061 18941 ft 408 kts 154°
2026-04-26 06:32 12.54338 122.46304 18451 ft 405 kts 154°
2026-04-26 06:32 12.51778 122.47559 17938 ft 403 kts 154°
2026-04-26 06:32 12.49219 122.48813 17425 ft 400 kts 154°
2026-04-26 06:32 12.46715 122.50040 16927 ft 398 kts 154°
2026-04-26 06:33 12.44194 122.51276 16422 ft 396 kts 154°
2026-04-26 06:33 12.41729 122.52481 15922 ft 394 kts 154°
2026-04-26 06:33 12.39498 122.53566 15465 ft 391 kts 155°
2026-04-26 06:33 12.37231 122.54536 15008 ft 389 kts 159°
2026-04-26 06:34 12.34368 122.55504 14448 ft 386 kts 164°
2026-04-26 06:34 12.31781 122.56210 13923 ft 383 kts 165°
2026-04-26 06:34 12.29274 122.56875 13415 ft 381 kts 165°
2026-04-26 06:34 12.27061 122.57461 12966 ft 378 kts 165°
2026-04-26 06:35 12.24795 122.58061 12512 ft 376 kts 165°
2026-04-26 06:35 12.22001 122.58805 11963 ft 372 kts 165°
2026-04-26 06:35 12.19469 122.59483 11475 ft 369 kts 165°
2026-04-26 06:35 12.17009 122.60142 10999 ft 365 kts 164°
2026-04-26 06:36 12.14523 122.60809 10532 ft 362 kts 164°
2026-04-26 06:36 12.12135 122.61449 10367 ft 348 kts 164°
2026-04-26 06:36 12.09824 122.62067 10260 ft 333 kts 164°
2026-04-26 06:36 12.07744 122.62620 10164 ft 319 kts 164°
2026-04-26 06:37 12.05554 122.63201 10076 ft 305 kts 164°
2026-04-26 06:37 12.03520 122.63740 9963 ft 293 kts 164°
2026-04-26 06:37 12.01557 122.64262 9625 ft 291 kts 164°
2026-04-26 06:37 11.99709 122.64754 9319 ft 289 kts 163°
2026-04-26 06:38 11.98062 122.65195 9045 ft 287 kts 163°
2026-04-26 06:38 11.96294 122.65677 8751 ft 285 kts 163°
2026-04-26 06:38 11.94324 122.66215 8424 ft 282 kts 163°
2026-04-26 06:38 11.92415 122.66734 8112 ft 280 kts 162°
2026-04-26 06:39 11.90531 122.67242 7800 ft 278 kts 162°
2026-04-26 06:39 11.88645 122.67747 7488 ft 276 kts 162°
2026-04-26 06:39 11.86780 122.68241 7181 ft 273 kts 162°
2026-04-26 06:39 11.84947 122.68729 6877 ft 271 kts 162°
2026-04-26 06:40 11.83079 122.69225 6569 ft 273 kts 161°
2026-04-26 06:40 11.81642 122.69610 6329 ft 276 kts 161°
2026-04-26 06:40 11.79479 122.70185 5969 ft 275 kts 161°
2026-04-26 06:40 11.77611 122.70683 5654 ft 274 kts 161°
2026-04-26 06:41 11.75767 122.71176 5343 ft 274 kts 161°
2026-04-26 06:41 11.73898 122.71675 5029 ft 273 kts 161°
2026-04-26 06:41 11.72057 122.72166 4720 ft 272 kts 161°
2026-04-26 06:41 11.70207 122.72660 4407 ft 271 kts 161°
2026-04-26 06:42 11.68360 122.73152 4093 ft 270 kts 161°
2026-04-26 06:42 11.66557 122.73634 3860 ft 269 kts 161°
2026-04-26 06:42 11.64708 122.74126 3668 ft 270 kts 161°
2026-04-26 06:42 11.62888 122.74611 3417 ft 269 kts 161°
2026-04-26 06:43 11.61056 122.75111 3215 ft 266 kts 157°
2026-04-26 06:43 11.59527 122.76059 3196 ft 257 kts 127°
2026-04-26 06:43 11.58661 122.77628 3211 ft 252 kts 109°
2026-04-26 06:43 11.58005 122.79295 3202 ft 252 kts 109°
2026-04-26 06:44 11.57336 122.80956 2973 ft 248 kts 110°
2026-04-26 06:44 11.56663 122.82594 2975 ft 253 kts 110°
2026-04-26 06:44 11.55980 122.84230 2991 ft 242 kts 110°
2026-04-26 06:44 11.55337 122.85760 3003 ft 225 kts 110°
2026-04-26 06:45 11.54735 122.87191 3021 ft 215 kts 110°
2026-04-26 06:45 11.54149 122.88590 3044 ft 215 kts 110°
2026-04-26 06:45 11.53366 122.89928 3054 ft 219 kts 129°
2026-04-26 06:45 11.52141 122.90859 3068 ft 225 kts 151°
2026-04-26 06:46 11.50656 122.91264 3059 ft 219 kts 173°
2026-04-26 06:46 11.49112 122.91080 3059 ft 218 kts 195°
2026-04-26 06:46 11.47784 122.90355 3132 ft 211 kts 216°
2026-04-26 06:46 11.46835 122.89258 3046 ft 199 kts 238°
2026-04-26 06:47 11.46344 122.88013 2978 ft 183 kts 259°
2026-04-26 06:47 11.46261 122.86758 2936 ft 175 kts 279°
2026-04-26 06:47 11.46543 122.85562 2845 ft 171 kts 297°
2026-04-26 06:47 11.47158 122.84534 2756 ft 166 kts 317°
2026-04-26 06:48 11.47967 122.83761 2662 ft 164 kts 327°
2026-04-26 06:48 11.48885 122.83054 2443 ft 162 kts 330°
2026-04-26 06:48 11.49796 122.82400 2225 ft 160 kts 331°
2026-04-26 06:48 11.50728 122.81740 2037 ft 160 kts 330°
2026-04-26 06:49 11.51639 122.81089 1794 ft 158 kts 330°
2026-04-26 06:49 11.52508 122.80462 1565 ft 147 kts 330°
2026-04-26 06:49 11.53338 122.79864 1397 ft 145 kts 330°
2026-04-26 06:49 11.54165 122.79272 1205 ft 144 kts 330°
2026-04-26 06:50 11.54985 122.78682 1011 ft 142 kts 330°
2026-04-26 06:50 11.55779 122.78113 829 ft 141 kts 330°
2026-04-26 06:50 11.56577 122.77539 643 ft 140 kts 329°
2026-04-26 06:50 11.57391 122.76959 451 ft 139 kts 331°
2026-04-26 06:51 11.58192 122.76408 274 ft 140 kts 328°
2026-04-26 06:51 11.59721 122.75324 22 ft 112 kts 329°
2026-04-26 06:51 11.60126 122.75033 22 ft 38 kts 325°
2026-04-26 06:52 11.60222 122.74961 22 ft 6 kts 296°
2026-04-26 06:52 11.60192 122.74925 22 ft 8 kts 204°
2026-04-26 06:52 11.60149 122.74921 22 ft 3 kts 152°
2026-04-26 06:52 11.60133 122.74931 22 ft 2 kts 146°
2026-04-26 06:53 11.60113 122.74946 22 ft 3 kts 143°
2026-04-26 06:53 11.60105 122.74952 22 ft 0 kts 143°